TimeCST,TemperatureF,Dew PointF,Humidity,Sea Level PressureIn,VisibilityMPH,Wind Direction,Wind SpeedMPH,Gust SpeedMPH,PrecipitationIn,Events,Conditions,WindDirDegrees,DateUTC
12:00 AM,71,61,62,29.81,12,East,8.1,,,,Scattered Clouds,100,2012-07-02 06:00:00
12:00 AM,71.6,60.8,69,30.00,6.2,East,8.1,-,N/A,,Partly Cloudy,100,2012-07-02 06:00:00
1:00 AM,69.8,60.8,73,29.97,6.2,East,10.4,-,N/A,,Scattered Clouds,100,2012-07-02 07:00:00
2:00 AM,69.8,60.8,73,29.96,6.2,ESE,10.4,-,N/A,,Scattered Clouds,120,2012-07-02 08:00:00
3:00 AM,70,61,65,29.83,12,East,9.2,,,,Scattered Clouds,100,2012-07-02 09:00:00
3:00 AM,69.8,60.8,73,29.96,6.2,East,9.2,-,N/A,,Scattered Clouds,100,2012-07-02 09:00:00
4:00 AM,69.8,60.8,73,29.96,6.2,ESE,6.9,-,N/A,,Partly Cloudy,120,2012-07-02 10:00:00
5:00 AM,69.8,60.8,73,29.94,6.2,ESE,10.4,-,N/A,,Scattered Clouds,120,2012-07-02 11:00:00
6:00 AM,71,61,64,29.81,12,ESE,10.4,,,,Haze,120,2012-07-02 12:00:00
6:00 AM,71.6,60.8,69,29.96,6.2,ESE,10.4,-,N/A,,Scattered Clouds,120,2012-07-02 12:00:00
7:00 AM,73.4,62.6,69,29.99,6.2,ENE,5.8,-,N/A,,Scattered Clouds,70,2012-07-02 13:00:00
8:00 AM,75.2,60.8,61,30.00,6.2,ESE,12.7,-,N/A,,Scattered Clouds,110,2012-07-02 14:00:00
9:00 AM,78,61,46,29.82,12,East,10.4,,,,Scattered Clouds,80,2012-07-02 15:00:00
9:00 AM,78.8,60.8,54,30.00,6.2,East,10.4,-,N/A,,Scattered Clouds,80,2012-07-02 15:00:00
10:00 AM,80.6,60.8,51,30.01,6.2,East,11.5,-,N/A,,Scattered Clouds,80,2012-07-02 16:00:00
11:00 AM,82.4,60.8,48,30.00,6.2,East,5.8,-,N/A,,Scattered Clouds,100,2012-07-02 17:00:00
12:00 PM,84,61,35,29.80,12,SE,8.1,,,,Partly Cloudy,130,2012-07-02 18:00:00
12:00 PM,84.2,60.8,45,29.97,6.2,SE,8.1,-,N/A,,Scattered Clouds,130,2012-07-02 18:00:00
1:00 PM,78.8,68.0,69,29.95,6.2,WSW,5.8,-,N/A,,Scattered Clouds,240,2012-07-02 19:00:00
2:00 PM,78.8,69.8,74,29.94,6.2,SW,10.4,-,N/A,,Scattered Clouds,230,2012-07-02 20:00:00
3:00 PM,77,73,85,29.77,9,WSW,9.2,,,,Overcast,240,2012-07-02 21:00:00
3:00 PM,77.0,73.4,89,29.94,6.2,WSW,9.2,-,N/A,,Mostly Cloudy,240,2012-07-02 21:00:00
4:00 PM,77.0,66.2,69,29.93,6.2,WNW,4.6,-,N/A,,Mostly Cloudy,290,2012-07-02 22:00:00
5:00 PM,75.2,69.8,83,29.94,6.2,WSW,4.6,-,N/A,,Mostly Cloudy,240,2012-07-02 23:00:00
6:00 PM,72,69,85,29.81,12,WSW,4.6,,,,Overcast,250,2012-07-03 00:00:00
6:00 PM,71.6,68.0,88,29.96,6.2,WSW,4.6,-,N/A,,Mostly Cloudy,250,2012-07-03 00:00:00
7:00 PM,71.6,68.0,88,29.98,6.2,West,3.5,-,N/A,Fog,Scattered Clouds,260,2012-07-03 01:00:00
8:00 PM,71.6,68.0,88,29.99,6.2,NW,2.3,-,N/A,Fog,Scattered Clouds,320,2012-07-03 02:00:00
9:00 PM,70,67,87,29.86,12,WSW,4.6,,,,Scattered Clouds,250,2012-07-03 03:00:00
9:00 PM,69.8,66.2,88,30.00,6.2,WSW,4.6,-,N/A,,Scattered Clouds,250,2012-07-03 03:00:00
10:00 PM,69.8,64.4,83,30.02,6.2,Calm,Calm,-,N/A,,Scattered Clouds,0,2012-07-03 04:00:00
11:00 PM,71.6,60.8,69,30.01,6.2,East,9.2,-,N/A,,Scattered Clouds,80,2012-07-03 05:00:00